Showing default

ICEYE-X44, 62707

Orbit data source: Space-Track

ICEYE-X44, 62707 is an Emirian payload satellite in SSO that was launched on Tue, 14 Jan 2025 UTC via an FALCON 9 launch vehicle from the Air Force Western Test Range (AFWTR). Payload-class satellites include a variety of spacecraft equipped with specific instruments for various scientific and technological missions. These include communications satellites like Starlink; space stations such as the ISS; scientific satellites like the Hubble; Earth observation satellites from companies like Planet Labs, Umbra, and HawkEye 360; GPS; miniature CubeSats for education and research; and military/defense satellites.

Loading next visibility...
Identifier
62707, 2025-009DC
Orbit
SSO
Country
Flag of AEAE / UAE
Related business
None
Manufacturer
ICEYE
Mission
Operational Commercial Radar Imaging
Bus & Motor
ICEYE, Unknown motor
Mass
80 kg wet, 80 kg dry
Launch date (UTC)
2025-01-14 (1 year ago)
Launch vehicle
FALCON 9
Launch site
Air Force Western Test Range (AFWTR)
Object type
Payload
Rocket body
Debris
Shape & HBR
Box + 1 Pan, 2.4 m
Radar Cross Section
0.776 m², Large (>1 m²)

Expand to show TLE details & history
Last TLE update: 20 hours ago

TLE from 20 hours ago
0 ICEYE-X44
1 62707U 25009DC  26067.80321694  .00004390  00000-0  40277-3 0  9991
2 62707  97.7099 148.5485 0002450 103.2496 256.8999 14.95375634 84935
Epoch: 2026-03-08T19:16Z
TLE epoch observation values (Epoch: 2026-03-08T19:16:37.943Z)
Latitude
0.00004°
Longitude
52.88512°
Altitude
584.642 km
Speed
7.568 km/s
True Right ascension
09h 54m 11s
True Declination
0° 00' 00"
Sunlit
Object was in full shadow at epoch
Visualization orbit readout
Latitude
Unknown
Longitude
Unknown
Altitude
Unknown
Speed
Unknown
Apparent Right ascension
Unknown
Apparent Declination
Unknown
Sunlit
N/A
Visualization observer readout
Local Sidereal Time
18:56:25
Azimuth
Unknown
Elevation
Unknown
Doppler factor
Unknown
Orbital elements
Apogee altitude
579.923 km
Perigee altitude
576.515 km
Semi-major axis
6,956.356 km
Eccentricity
0.00025
Inclination
97.7099°
RAAN
148.5485°
Arg. of periapsis
103.2496°
True anomaly
256.87256°
Mean anomaly
256.8999°
Eccentric anomaly
256.88623°
Mean motion
3.74085 °/min
Orbital period
96.23 mins
BSTAR
0.00040277
Loading maneuver chart data...
Computing Atmospheric mass density...
Loading historical data...
Loading historical data...
Loading historical data...
Loading historical data...
Loading historical data...
Loading historical data...
Loading historical data...

Documentation

Showing up to 5 results
|